When you browse on this site, cookies collect data to enhance your experience and personalize the content and advertising you see.
Visit our Privacy Policy to learn more. By continuing to use the site, you agree to this use of cookies and data.
  • In Österreich
  • Länderverzeichnis
  • Für 7 Tage
  • Wassertemperatur
  • Satellitenkarten
  • Wetterkarte
  • News
  • Widgets
  • user-avatar
    Anmelden

    Stündliche Wetter Tracy

    Heute, 20 Juli, Samstag

    Zeit Temperatur Niederschläge Wind Luftdruck Luftfeuchtigkeit
    00:00 +18°C° 0 mm 2 m/S 757 mmHg 76%
    01:00 +17°C° 0 mm 2 m/S 757 mmHg 78%
    02:00 +18°C° 0 mm 1 m/S 757 mmHg 79%
    03:00 +16°C° 0 mm 1 m/S 757 mmHg 81%
    04:00 +16°C° 0 mm 1 m/S 757 mmHg 82%
    05:00 +18°C° 0 mm 1 m/S 757 mmHg 76%
    06:00 +19°C° 0 mm 1 m/S 758 mmHg 70%
    07:00 +21°C° 0 mm 1 m/S 758 mmHg 63%
    08:00 +24°C° 0 mm 1 m/S 758 mmHg 53%
    09:00 +27°C° 0 mm 1 m/S 757 mmHg 43%
    10:00 +30°C° 0 mm 1 m/S 757 mmHg 33%
    11:00 +32°C° 0 mm 2 m/S 757 mmHg 30%
    12:00 +35°C° 0 mm 2 m/S 757 mmHg 27%
    13:00 +37°C° 0 mm 3 m/S 756 mmHg 23%
    14:00 +37°C° 0 mm 3 m/S 756 mmHg 23%
    15:00 +37°C° 0 mm 4 m/S 756 mmHg 24%
    16:00 +37°C° 0 mm 5 m/S 755 mmHg 24%
    17:00 +34°C° 0 mm 4 m/S 755 mmHg 29%
    18:00 +32°C° 0 mm 4 m/S 755 mmHg 34%
    19:00 +28°C° 0 mm 3 m/S 755 mmHg 39%
    20:00 +26°C° 0 mm 3 m/S 756 mmHg 45%
    21:00 +24°C° 0 mm 2 m/S 756 mmHg 51%
    22:00 +21°C° 0 mm 2 m/S 756 mmHg 57%
    23:00 +20°C° 0 mm 2 m/S 756 mmHg 60%

    Morgen, 21 Juli, Sonntag

    Zeit Temperatur Niederschläge Wind Luftdruck Luftfeuchtigkeit
    00:00 +19°C° 0 mm 2 m/S 756 mmHg 62%
    01:00 +20°C° 0 mm 1 m/S 756 mmHg 64%
    02:00 +19°C° 0 mm 1 m/S 756 mmHg 65%
    03:00 +19°C° 0 mm 1 m/S 756 mmHg 66%
    04:00 +19°C° 0 mm 1 m/S 756 mmHg 66%
    05:00 +20°C° 0 mm 1 m/S 756 mmHg 60%
    06:00 +22°C° 0 mm 1 m/S 757 mmHg 54%
    07:00 +24°C° 0 mm 1 m/S 757 mmHg 49%
    08:00 +27°C° 0 mm 1 m/S 757 mmHg 41%
    09:00 +30°C° 0 mm 1 m/S 757 mmHg 34%
    10:00 +34°C° 0 mm 2 m/S 757 mmHg 26%
    11:00 +36°C° 0 mm 2 m/S 757 mmHg 23%
    12:00 +38°C° 0 mm 2 m/S 756 mmHg 20%
    13:00 +40°C° 0 mm 2 m/S 756 mmHg 18%
    14:00 +40°C° 0 mm 2 m/S 756 mmHg 18%
    15:00 +40°C° 0 mm 3 m/S 756 mmHg 18%
    16:00 +41°C° 0 mm 4 m/S 755 mmHg 19%
    17:00 +37°C° 0 mm 4 m/S 755 mmHg 24%
    18:00 +34°C° 0 mm 4 m/S 755 mmHg 29%
    19:00 +30°C° 0 mm 4 m/S 755 mmHg 34%
    20:00 +28°C° 0 mm 3 m/S 756 mmHg 38%
    21:00 +26°C° 0 mm 3 m/S 756 mmHg 42%
    22:00 +24°C° 0 mm 2 m/S 757 mmHg 46%
    23:00 +24°C° 0 mm 2 m/S 757 mmHg 49%

    übermorgen, 22 Juli, Montag

    Zeit Temperatur Niederschläge Wind Luftdruck Luftfeuchtigkeit
    00:00 +23°C° 0 mm 2 m/S 757 mmHg 51%
    01:00 +21°C° 0 mm 2 m/S 757 mmHg 53%
    02:00 +21°C° 0 mm 1 m/S 757 mmHg 55%
    03:00 +21°C° 0 mm 1 m/S 757 mmHg 56%
    04:00 +20°C° 0 mm 1 m/S 757 mmHg 58%
    05:00 +22°C° 0 mm 1 m/S 757 mmHg 53%
    06:00 +23°C° 0 mm 1 m/S 758 mmHg 48%
    07:00 +25°C° 0 mm 1 m/S 758 mmHg 43%
    08:00 +28°C° 0 mm 1 m/S 758 mmHg 36%
    09:00 +31°C° 0 mm 1 m/S 758 mmHg 28%
    10:00 +35°C° 0 mm 1 m/S 758 mmHg 21%
    11:00 +38°C° 0 mm 2 m/S 758 mmHg 18%
    12:00 +40°C° 0 mm 2 m/S 758 mmHg 15%
    13:00 +42°C° 0 mm 2 m/S 758 mmHg 12%
    14:00 +42°C° 0 mm 3 m/S 758 mmHg 13%
    15:00 +42°C° 0 mm 4 m/S 757 mmHg 14%
    16:00 +41°C° 0 mm 5 m/S 757 mmHg 15%
    17:00 +37°C° 0 mm 5 m/S 757 mmHg 20%
    18:00 +34°C° 0 mm 5 m/S 758 mmHg 25%
    19:00 +29°C° 0 mm 4 m/S 758 mmHg 30%
    20:00 +28°C° 0 mm 4 m/S 758 mmHg 33%
    21:00 +26°C° 0 mm 3 m/S 759 mmHg 36%
    22:00 +24°C° 0 mm 3 m/S 759 mmHg 39%
    23:00 +23°C° 0 mm 2 m/S 759 mmHg 40%

    23 Juli, Dienstag

    Zeit Temperatur Niederschläge Wind Luftdruck Luftfeuchtigkeit
    00:00 +23°C° 0 mm 2 m/S 759 mmHg 41%
    01:00 +21°C° 0 mm 2 m/S 759 mmHg 42%
    02:00 +22°C° 0 mm 1 m/S 759 mmHg 43%
    03:00 +21°C° 0 mm 1 m/S 759 mmHg 44%
    04:00 +21°C° 0 mm 1 m/S 759 mmHg 46%
    05:00 +22°C° 0 mm 1 m/S 759 mmHg 42%
    06:00 +24°C° 0 mm 1 m/S 759 mmHg 38%
    07:00 +26°C° 0 mm 1 m/S 760 mmHg 34%
    08:00 +29°C° 0 mm 1 m/S 760 mmHg 29%
    09:00 +32°C° 0 mm 2 m/S 760 mmHg 24%
    10:00 +36°C° 0 mm 2 m/S 759 mmHg 18%
    11:00 +37°C° 0 mm 2 m/S 759 mmHg 16%
    12:00 +39°C° 0 mm 3 m/S 759 mmHg 14%
    13:00 +42°C° 0 mm 3 m/S 759 mmHg 12%
    14:00 +42°C° 0 mm 4 m/S 759 mmHg 12%
    15:00 +41°C° 0 mm 5 m/S 758 mmHg 12%
    16:00 +41°C° 0 mm 6 m/S 758 mmHg 12%
    17:00 +37°C° 0 mm 5 m/S 758 mmHg 15%
    18:00 +34°C° 0 mm 5 m/S 758 mmHg 19%
    19:00 +30°C° 0 mm 4 m/S 758 mmHg 22%
    20:00 +28°C° 0 mm 4 m/S 759 mmHg 24%
    21:00 +26°C° 0 mm 3 m/S 759 mmHg 26%
    22:00 +24°C° 0 mm 3 m/S 759 mmHg 28%
    23:00 +23°C° 0 mm 2 m/S 759 mmHg 28%

    24 Juli, Mittwoch

    Zeit Temperatur Niederschläge Wind Luftdruck Luftfeuchtigkeit
    00:00 +23°C° 0 mm 2 m/S 759 mmHg 29%
    01:00 +22°C° 0 mm 1 m/S 759 mmHg 29%
    02:00 +22°C° 0 mm 1 m/S 759 mmHg 31%
    03:00 +21°C° 0 mm 1 m/S 759 mmHg 33%
    04:00 +21°C° 0 mm 1 m/S 759 mmHg 35%
    05:00 +22°C° 0 mm 1 m/S 759 mmHg 34%
    06:00 +24°C° 0 mm 2 m/S 759 mmHg 32%
    07:00 +25°C° 0 mm 2 m/S 759 mmHg 31%
    08:00 +29°C° 0 mm 2 m/S 759 mmHg 26%
    09:00 +32°C° 0 mm 2 m/S 759 mmHg 20%
    10:00 +36°C° 0 mm 2 m/S 758 mmHg 15%
    11:00 +38°C° 0 mm 2 m/S 758 mmHg 13%
    12:00 +40°C° 0 mm 2 m/S 758 mmHg 10%
    13:00 +43°C° 0 mm 2 m/S 757 mmHg 8%
    14:00 +44°C° 0 mm 3 m/S 757 mmHg 8%
    15:00 +44°C° 0 mm 4 m/S 757 mmHg 8%
    16:00 +45°C° 0 mm 4 m/S 756 mmHg 7%
    17:00 +41°C° 0 mm 4 m/S 756 mmHg 10%
    18:00 +37°C° 0 mm 4 m/S 756 mmHg 12%
    19:00 +34°C° 0 mm 4 m/S 756 mmHg 15%
    20:00 +31°C° 0 mm 3 m/S 757 mmHg 18%
    21:00 +29°C° 0 mm 3 m/S 757 mmHg 21%
    22:00 +26°C° 0 mm 3 m/S 757 mmHg 24%
    23:00 +26°C° 0 mm 2 m/S 757 mmHg 24%

    25 Juli, Donnerstag

    Zeit Temperatur Niederschläge Wind Luftdruck Luftfeuchtigkeit
    00:00 +25°C° 0 mm 2 m/S 757 mmHg 24%
    01:00 +24°C° 0 mm 1 m/S 757 mmHg 25%
    02:00 +24°C° 0 mm 1 m/S 757 mmHg 25%
    03:00 +23°C° 0 mm 1 m/S 757 mmHg 26%
    04:00 +23°C° 0 mm 1 m/S 757 mmHg 26%
    05:00 +24°C° 0 mm 1 m/S 757 mmHg 25%
    06:00 +26°C° 0 mm 1 m/S 757 mmHg 24%
    07:00 +27°C° 0 mm 1 m/S 757 mmHg 23%
    08:00 +30°C° 0 mm 2 m/S 757 mmHg 19%
    09:00 +34°C° 0 mm 2 m/S 757 mmHg 15%
    10:00 +38°C° 0 mm 2 m/S 757 mmHg 11%
    11:00 +40°C° 0 mm 2 m/S 757 mmHg 10%
    12:00 +42°C° 0 mm 2 m/S 756 mmHg 8%
    13:00 +45°C° 0 mm 3 m/S 756 mmHg 7%
    14:00 +45°C° 0 mm 3 m/S 755 mmHg 7%
    15:00 +45°C° 0 mm 4 m/S 755 mmHg 7%
    16:00 +46°C° 0 mm 5 m/S 755 mmHg 7%
    17:00 +42°C° 0 mm 5 m/S 755 mmHg 10%
    18:00 +38°C° 0 mm 4 m/S 755 mmHg 13%
    19:00 +34°C° 0 mm 4 m/S 755 mmHg 16%
    20:00 +31°C° 0 mm 3 m/S 756 mmHg 19%
    21:00 +29°C° 0 mm 3 m/S 756 mmHg 22%
    22:00 +27°C° 0 mm 3 m/S 756 mmHg 25%
    23:00 +26°C° 0 mm 2 m/S 756 mmHg 25%
    Mehr zeigen